{"data":{"norad_id":62061,"intl_designator":"2024-217E","name":"STARLINK-11429 [DTC]","alt_names":[],"object_type":"PAYLOAD","status":"ACTIVE","operator":null,"country":"US","launch_date":"2024-11-24","launch_site_code":"AFWTR","launch_vehicle":null,"mission":null,"orbit_class":"UNKNOWN","rcs_meters":null,"size_class":null,"mass_kg":null,"dimensions":null,"purposes":["comms"],"wikipedia_slug":null,"has_3d_model":false,"image_url":null,"decayed_at":null,"tle_current":{"epoch":"2026-05-25T03:55:57.091008Z","epoch_age_seconds":64103,"freshness":"FRESH","line1":"1 62061U 24217E   26145.16385522  .00273089  00000+0  21803-2 0  9995","line2":"2 62061  53.1565  54.3417 0001055  96.6881 263.4257 15.69768548 87187","mean_motion":15.69768548,"eccentricity":0.0001055,"inclination_deg":53.1565,"raan_deg":54.3417,"arg_perigee_deg":96.6881,"mean_anomaly_deg":263.4257,"bstar":0.0021803,"rev_number":8718,"period_min":91.733268693316,"perigee_km":358.84838671162,"apogee_km":360.2700406127,"semimajor_km":6737.6962136622,"source":"CELESTRAK","updated_at":"2026-05-25T13:38:19.530295Z"}}}